Regional Weather Roundup
Issued by NWS Albany, NY

Home | Current Version | Previous Version | Text Only | Print | Product List | Glossary On
Versions: 1 2 3 4 5 6 7 8 9 10 11 12 13 14 15 16 17 18 19 20 21 22 23 24 25 26 27 28 29 30 31 32 33 34 35 36 37 38 39 40 41 42 43 44 45 46 47 48 49 50
000
ASUS41 KALY 051110
RWRALY

NEW YORK STATE HOURLY WEATHER ROUNDUP
NATIONAL WEATHER SERVICE ALBANY NY
700 AM EDT THU MAY 05 2016

NOTE: "FAIR" INDICATES FEW OR NO CLOUDS BELOW 12,000 FEET WITH NO
SIGNIFICANT WEATHER AND/OR NO OBSTRUCTIONS TO VISIBILITY.

NYZ032-033-038>043-046>054-057>066-NYZ062>081-082-084-051200-
EAST


CITY           SKY/WX    TMP DP  RH WIND       PRES   REMARKS
ALBANY         CLOUDY    48  44  86 N6        29.76S
GLENS FALLS    CLOUDY    48  43  82 N8        29.78S
POUGHKEEPSIE   CLOUDY    49  43  80 NE6       29.72R
NEWBURGH       CLOUDY    45  45 100 NE6       29.72R
MONTGOMERY     CLOUDY    47  44  90 NE8       29.71S
WHITE PLAINS   CLOUDY    46  41  82 N9        29.69S
ISLIP          CLOUDY    46  41  82 N13       29.69R
NEW YORK CITY  CLOUDY    47  45  93 NE10      29.70S
CENTRAL PARK   CLOUDY    47  43  86 VRB7      29.72S FOG
$$

NYZ005>009-017-018-044>046-055-056-051200-
CENTRAL


CITY           SKY/WX    TMP DP  RH WIND       PRES   REMARKS
FULTON         CLOUDY    51  43  74 NE5       29.79R
SYRACUSE       PTSUNNY   47  42  83 NE6       29.78R
ROME           CLOUDY    48  43  82 CALM      29.80R
ELMIRA         CLOUDY    49  44  83 CALM      29.73S
BINGHAMTON     CLOUDY    43  40  89 NE6       29.72S
MONTICELLO     CLOUDY    43  43 100 CALM      29.72S
$$

NYZ026>034-041>043-087-051200-
NORTH


CITY           SKY/WX    TMP DP  RH WIND       PRES   REMARKS
WATERTOWN      CLOUDY    47  45  93 E3        29.80R
FORT DRUM      NOT AVBL
MASSENA        PTSUNNY   46  40  79 NE13      29.85R
SARANAC LAKE   FOG       40  39  97 VRB3      29.78S VSB 1/2
PLATTSBURGH    CLOUDY    46  44  93 NW5       29.82R
$$

NYZ001>004-010>016-019>021-085-051200-
WEST


CITY           SKY/WX    TMP DP  RH WIND       PRES   REMARKS
NIAGARA FALLS  CLOUDY    48  44  86 NE10      29.76R
BUFFALO        FOG       46  45  96 NE8       29.75R VSB 1/4
DUNKIRK        CLOUDY    48  46  93 N5        29.74R
JAMESTOWN      CLOUDY    46  43  87 NE5       29.71R
WELLSVILLE     CLOUDY    47  45  93 E8        29.73R FOG
ROCHESTER      CLOUDY    51  46  83 E7        29.77R
PENN YAN       CLOUDY    49  44  83 E3        29.76R
$$

             KEY
       WCI = WIND CHILL INDEX
       VSB = VISIBILITY
       HX  = HEAT INDEX
$$



USA.gov is the U.S. government's official web portal to all federal, state and local government web resources and services.